Aswan, Egypt

7:59 AM EET on August 21, 2017 (GMT +0200)
Aswan

Weather History for HESN - December, 2013

Change the Weather History Date:

Sunday, December 8, 2013

  Actual Average Record
Temperature  
Mean Temperature 72 °F -  
Max Temperature 84 °F 72 °F 91 °F (2000)
Min Temperature 61 °F 50 °F 46 °F (2006)
Cooling Degree Days 8    
Growing Degree Days 22 (Base 50)    
Moisture  
Dew Point 38 °F    
Average Humidity 27    
Maximum Humidity 43    
Minimum Humidity 11    
Precipitation  
Precipitation 0.00 in 0.00 in - ()
Sea Level Pressure  
Sea Level Pressure 30.02 in    
Wind  
Wind Speed 8 mph ()    
Max Wind Speed 15 mph    
Max Gust Speed -    
Visibility 6.0 miles    
Events      
Averages and records for this station are not official NWS values.
T = Trace of Precipitation, MM = Missing Value Source: Averaged Metar Reports

Daily Weather History Graph

Daily Weather History Graph

Search for Another Location

Airport or City:

Trip Planner

Search our weather history database for the weather conditions in past years. The results will help you decide how hot, cold, wet, or windy it might be!

Date:

Astronomy

Dec. 08, 2013 Rise Set
Actual Time 6:19 AM EET 5:01 PM EET
Civil Twilight 5:54 AM EET 5:26 PM EET
Nautical Twilight 5:26 AM EET 5:54 PM EET
Astronomical Twilight 4:59 AM EET 6:22 PM EET
Moon 10:55 AM EET (12/8) 10:57 PM EET (12/8)
Length of Visible Light 11h 31m
Length of Day
10h 42m
Waxing Crescent, 36% of the Moon is Illuminated
Dec 8
Waxing Crescent
Dec 9
First Quarter
Dec 17
Full
Dec 25
Last Quarter
Jan 1
New

Hourly Weather History & Observations

Time (EET) Temp. Dew Point Humidity Pressure Visibility Wind Dir Wind Speed Gust Speed Precip Events Conditions
12:00 AM 68.0 °F 35.6 °F 30% 30.01 in - North 6.9 mph - N/A   Clear
1:00 AM 66.2 °F 37.4 °F 35% 30.01 in - North 8.1 mph - N/A   Clear
2:00 AM 65 °F 37 °F 24% 30.01 in 6 mi North 6.9 mph - -  
2:00 AM 64.4 °F 37.4 °F 37% 30.01 in - North 6.9 mph - N/A   Clear
3:00 AM 64.4 °F 37.4 °F 37% 30.01 in - North 6.9 mph - N/A   Clear
4:00 AM 62.6 °F 35.6 °F 37% 30.01 in - North 8.1 mph - N/A   Clear
5:00 AM 62 °F 35 °F 25% 30.01 in 6 mi North 6.9 mph - -  
5:00 AM 62.6 °F 35.6 °F 37% 30.01 in - North 6.9 mph - N/A   Clear
6:00 AM 62.6 °F 35.6 °F 37% 30.04 in - North 4.6 mph - N/A   Clear
7:00 AM 62.6 °F 37.4 °F 39% 30.04 in - North 5.8 mph - N/A   Clear
8:00 AM 65 °F 37 °F 24% 30.06 in 6 mi North 9.2 mph - -  
8:00 AM 64.4 °F 37.4 °F 37% 30.06 in - North 9.2 mph - N/A   Clear
9:00 AM 66.2 °F 42.8 °F 43% 30.06 in - North 6.9 mph - N/A   Clear
10:00 AM 73.4 °F 39.2 °F 29% 30.06 in - North 11.5 mph - N/A   Clear
11:00 AM 78 °F 42 °F 17% 30.03 in 6 mi NNE 10.4 mph - -  
11:00 AM 77.0 °F 42.8 °F 29% 30.04 in - NNE 10.4 mph - N/A   Clear
12:00 PM 80.6 °F 41.0 °F 24% 30.01 in - NNE 9.2 mph - N/A   Clear
1:00 PM 82.4 °F 41.0 °F 23% 29.98 in - North 8.1 mph - N/A   Clear
2:00 PM 85 °F 43 °F 13% 29.96 in 6 mi North 9.2 mph - -  
2:00 PM 84.2 °F 42.8 °F 23% 29.98 in - North 9.2 mph - N/A   Clear
3:00 PM 84.2 °F 37.4 °F 19% 29.98 in - North 11.5 mph - N/A   Clear
4:00 PM 82.4 °F 35.6 °F 19% 29.98 in - North 15.0 mph - N/A   Clear
5:00 PM 80 °F 34 °F 11% 29.99 in 6 mi North 13.8 mph - -  
5:00 PM 80.6 °F 33.8 °F 18% 30.01 in - North 13.8 mph - N/A   Clear
6:00 PM 78.8 °F 33.8 °F 20% 30.01 in - North 11.5 mph - N/A   Clear
7:00 PM 75.2 °F 33.8 °F 22% 30.04 in - NNW 9.2 mph - N/A   Clear
8:00 PM 74 °F 35 °F 14% 30.03 in 6 mi NNW 9.2 mph - -  
8:00 PM 75.2 °F 35.6 °F 24% 30.04 in - NNW 9.2 mph - N/A   Clear
9:00 PM 71.6 °F 39.2 °F 31% 30.06 in - North 10.4 mph - N/A   Clear
10:00 PM 69.8 °F 41.0 °F 35% 30.09 in - North 10.4 mph - N/A   Clear
11:00 PM 69 °F 40 °F 24% 30.08 in 6 mi North 10.4 mph - -  
11:00 PM 68.0 °F 41.0 °F 37% 30.09 in - North 10.4 mph - N/A   Clear